When you browse on this site, cookies collect data to enhance your experience and personalize the content and advertising you see.
Visit our Privacy Policy to learn more. By continuing to use the site, you agree to this use of cookies and data.
  • en France
  • Liste des pays
  • À 7 jours
  • Température de l'eau
  • Carte météo
  • Widgets météo
  • user-avatar
    Se connecter

    Météo par heure à Ajaccio

    Ce jour, 14 Novembre, Jeudi

    Heure Température Précipitation Vent Pression Humidité
    00:00 +9°C° 0 mm 3 m/s 740 mmHg 72%
    01:00 +9°C° 0 mm 3 m/s 740 mmHg 71%
    02:00 +9°C° 0 mm 3 m/s 740 mmHg 71%
    03:00 +8°C° 0 mm 3 m/s 740 mmHg 71%
    04:00 +8°C° 0 mm 3 m/s 740 mmHg 70%
    05:00 +8°C° 0 mm 3 m/s 740 mmHg 70%
    06:00 +8°C° 0 mm 2 m/s 740 mmHg 69%
    07:00 +8°C° 0 mm 2 m/s 740 mmHg 69%
    08:00 +9°C° 0 mm 2 m/s 741 mmHg 65%
    09:00 +12°C° 0 mm 2 m/s 741 mmHg 62%
    10:00 +14°C° 0 mm 1 m/s 741 mmHg 58%
    11:00 +14°C° 0 mm 2 m/s 741 mmHg 55%
    12:00 +15°C° 0 mm 2 m/s 740 mmHg 53%
    13:00 +14°C° 0 mm 3 m/s 740 mmHg 50%
    14:00 +14°C° 0 mm 4 m/s 739 mmHg 56%
    15:00 +13°C° 0 mm 5 m/s 738 mmHg 61%
    16:00 +13°C° 0 mm 5 m/s 738 mmHg 66%
    17:00 +11°C° 0.6 mm 6 m/s 737 mmHg 68%
    18:00 +11°C° 0.6 mm 6 m/s 737 mmHg 71%
    19:00 +10°C° 0.6 mm 7 m/s 737 mmHg 73%
    20:00 +10°C° 3.3 mm 7 m/s 736 mmHg 76%
    21:00 +11°C° 3.3 mm 7 m/s 736 mmHg 80%
    22:00 +11°C° 3.3 mm 8 m/s 736 mmHg 83%
    23:00 +11°C° 4.9 mm 7 m/s 736 mmHg 87%

    Demain, 15 Novembre, Vendredi

    Heure Température Précipitation Vent Pression Humidité
    00:00 +11°C° 4.9 mm 6 m/s 736 mmHg 91%
    01:00 +12°C° 4.9 mm 5 m/s 736 mmHg 95%
    02:00 +12°C° 2 mm 4 m/s 736 mmHg 94%
    03:00 +11°C° 2 mm 4 m/s 736 mmHg 93%
    04:00 +11°C° 2 mm 3 m/s 737 mmHg 92%
    05:00 +10°C° 1.2 mm 3 m/s 737 mmHg 91%
    06:00 +10°C° 1.2 mm 3 m/s 737 mmHg 90%
    07:00 +9°C° 1.2 mm 3 m/s 736 mmHg 89%
    08:00 +10°C° 0 mm 3 m/s 737 mmHg 86%
    09:00 +11°C° 0 mm 3 m/s 737 mmHg 83%
    10:00 +11°C° 0 mm 4 m/s 737 mmHg 80%
    11:00 +11°C° 0.4 mm 4 m/s 737 mmHg 80%
    12:00 +12°C° 0.4 mm 5 m/s 737 mmHg 80%
    13:00 +11°C° 0.4 mm 6 m/s 737 mmHg 79%
    14:00 +11°C° 1.1 mm 6 m/s 738 mmHg 81%
    15:00 +11°C° 1.1 mm 6 m/s 738 mmHg 83%
    16:00 +10°C° 1.1 mm 6 m/s 738 mmHg 85%
    17:00 +10°C° 1 mm 5 m/s 738 mmHg 86%
    18:00 +10°C° 1 mm 5 m/s 739 mmHg 86%
    19:00 +9°C° 1 mm 5 m/s 739 mmHg 86%
    20:00 +10°C° 0.8 mm 4 m/s 740 mmHg 87%
    21:00 +10°C° 0.8 mm 4 m/s 740 mmHg 87%
    22:00 +9°C° 0.8 mm 3 m/s 741 mmHg 88%
    23:00 +9°C° 0.8 mm 3 m/s 741 mmHg 87%

    Après-demain, 16 Novembre, Samedi

    Heure Température Précipitation Vent Pression Humidité
    00:00 +9°C° 0.8 mm 2 m/s 742 mmHg 87%
    01:00 +10°C° 0.8 mm 1 m/s 742 mmHg 87%
    02:00 +10°C° 0.3 mm 1 m/s 742 mmHg 86%
    03:00 +10°C° 0.3 mm 1 m/s 742 mmHg 86%
    04:00 +10°C° 0.3 mm 1 m/s 742 mmHg 85%
    05:00 +8°C° 0.1 mm 2 m/s 742 mmHg 84%
    06:00 +8°C° 0.1 mm 2 m/s 742 mmHg 83%
    07:00 +8°C° 0.1 mm 2 m/s 743 mmHg 82%
    08:00 +9°C° 0.1 mm 2 m/s 743 mmHg 79%
    09:00 +12°C° 0.1 mm 2 m/s 743 mmHg 75%
    10:00 +13°C° 0.1 mm 2 m/s 743 mmHg 72%
    11:00 +13°C° 0.2 mm 2 m/s 743 mmHg 71%
    12:00 +12°C° 0.2 mm 3 m/s 743 mmHg 70%
    13:00 +13°C° 0.2 mm 3 m/s 742 mmHg 69%
    14:00 +13°C° 0.1 mm 2 m/s 742 mmHg 71%
    15:00 +13°C° 0.1 mm 2 m/s 741 mmHg 74%
    16:00 +13°C° 0.1 mm 2 m/s 740 mmHg 76%
    17:00 +12°C° 0.5 mm 2 m/s 740 mmHg 80%
    18:00 +10°C° 0.5 mm 2 m/s 739 mmHg 83%
    19:00 +10°C° 0.5 mm 2 m/s 739 mmHg 87%
    20:00 +10°C° 0.3 mm 3 m/s 738 mmHg 87%
    21:00 +9°C° 0.3 mm 3 m/s 737 mmHg 87%
    22:00 +9°C° 0.3 mm 3 m/s 737 mmHg 88%
    23:00 +9°C° 1.4 mm 3 m/s 736 mmHg 88%

    17 Novembre, Dimanche

    Heure Température Précipitation Vent Pression Humidité
    00:00 +9°C° 1.4 mm 3 m/s 735 mmHg 89%
    01:00 +8°C° 1.4 mm 4 m/s 734 mmHg 89%
    02:00 +8°C° 2.1 mm 4 m/s 734 mmHg 91%
    03:00 +8°C° 2.1 mm 5 m/s 733 mmHg 93%
    04:00 +8°C° 2.1 mm 5 m/s 733 mmHg 94%
    05:00 +9°C° 3.7 mm 6 m/s 733 mmHg 95%
    06:00 +9°C° 3.7 mm 7 m/s 733 mmHg 95%
    07:00 +9°C° 3.7 mm 8 m/s 733 mmHg 95%
    08:00 +9°C° 1 mm 6 m/s 734 mmHg 93%
    09:00 +10°C° 1 mm 4 m/s 734 mmHg 91%
    10:00 +10°C° 1 mm 2 m/s 735 mmHg 89%
    11:00 +10°C° 0.2 mm 3 m/s 735 mmHg 87%
    12:00 +11°C° 0.2 mm 4 m/s 735 mmHg 86%
    13:00 +10°C° 0.2 mm 5 m/s 736 mmHg 84%
    14:00 +10°C° 0.3 mm 5 m/s 736 mmHg 85%
    15:00 +10°C° 0.3 mm 5 m/s 736 mmHg 86%
    16:00 +9°C° 0.3 mm 5 m/s 737 mmHg 87%
    17:00 +9°C° 0.3 mm 6 m/s 737 mmHg 87%
    18:00 +9°C° 0.3 mm 7 m/s 738 mmHg 88%
    19:00 +8°C° 0.3 mm 9 m/s 738 mmHg 88%
    20:00 +9°C° 0.2 mm 8 m/s 738 mmHg 87%
    21:00 +9°C° 0.2 mm 8 m/s 739 mmHg 87%
    22:00 +7°C° 0.2 mm 8 m/s 739 mmHg 86%
    23:00 +9°C° 0.2 mm 8 m/s 739 mmHg 86%

    18 Novembre, Lundi

    Heure Température Précipitation Vent Pression Humidité
    00:00 +9°C° 0.2 mm 7 m/s 740 mmHg 86%
    01:00 +9°C° 0.2 mm 7 m/s 740 mmHg 86%
    02:00 +9°C° 0.2 mm 7 m/s 740 mmHg 86%
    03:00 +9°C° 0.2 mm 6 m/s 740 mmHg 85%
    04:00 +9°C° 0.2 mm 6 m/s 740 mmHg 85%
    05:00 +9°C° 0.1 mm 6 m/s 741 mmHg 85%
    06:00 +9°C° 0.1 mm 6 m/s 741 mmHg 84%
    07:00 +9°C° 0.1 mm 5 m/s 741 mmHg 84%
    08:00 +9°C° 0.1 mm 5 m/s 742 mmHg 82%
    09:00 +10°C° 0.1 mm 4 m/s 742 mmHg 81%
    10:00 +11°C° 0.1 mm 4 m/s 743 mmHg 79%
    11:00 +11°C° 0 mm 3 m/s 743 mmHg 76%
    12:00 +11°C° 0 mm 3 m/s 743 mmHg 73%
    13:00 +11°C° 0 mm 3 m/s 743 mmHg 70%
    14:00 +11°C° 0 mm 3 m/s 743 mmHg 72%
    15:00 +11°C° 0 mm 3 m/s 742 mmHg 74%
    16:00 +11°C° 0 mm 3 m/s 742 mmHg 76%
    17:00 +10°C° 0 mm 3 m/s 743 mmHg 78%
    18:00 +10°C° 0 mm 3 m/s 743 mmHg 80%
    19:00 +9°C° 0 mm 2 m/s 743 mmHg 82%
    20:00 +9°C° 0 mm 3 m/s 743 mmHg 82%
    21:00 +8°C° 0 mm 3 m/s 744 mmHg 82%
    22:00 +8°C° 0 mm 3 m/s 744 mmHg 82%
    23:00 +8°C° 0 mm 3 m/s 744 mmHg 82%

    19 Novembre, Mardi

    Heure Température Précipitation Vent Pression Humidité
    00:00 +8°C° 0 mm 3 m/s 744 mmHg 82%
    01:00 +8°C° 0 mm 3 m/s 744 mmHg 81%
    02:00 +7°C° 0 mm 3 m/s 744 mmHg 81%
    03:00 +7°C° 0 mm 3 m/s 744 mmHg 81%
    04:00 +7°C° 0 mm 3 m/s 744 mmHg 81%
    05:00 +7°C° 0 mm 3 m/s 745 mmHg 78%
    06:00 +7°C° 0 mm 3 m/s 745 mmHg 75%
    07:00 +7°C° 0 mm 3 m/s 745 mmHg 72%
    08:00 +8°C° 0 mm 2 m/s 746 mmHg 72%
    09:00 +9°C° 0 mm 2 m/s 746 mmHg 72%
    10:00 +12°C° 0 mm 2 m/s 747 mmHg 72%
    11:00 +12°C° 0.1 mm 2 m/s 747 mmHg 72%
    12:00 +12°C° 0.1 mm 3 m/s 747 mmHg 72%
    13:00 +12°C° 0.1 mm 3 m/s 747 mmHg 73%
    14:00 +12°C° 0.1 mm 4 m/s 747 mmHg 77%
    15:00 +12°C° 0.1 mm 4 m/s 747 mmHg 81%
    16:00 +10°C° 0.1 mm 5 m/s 747 mmHg 85%
    17:00 +10°C° 0.1 mm 4 m/s 747 mmHg 85%
    18:00 +10°C° 0.1 mm 3 m/s 748 mmHg 84%
    19:00 +9°C° 0.1 mm 2 m/s 748 mmHg 83%
    20:00 +9°C° 0 mm 3 m/s 748 mmHg 80%
    21:00 +9°C° 0 mm 3 m/s 748 mmHg 77%
    22:00 +8°C° 0 mm 3 m/s 748 mmHg 74%
    23:00 +9°C° 0 mm 3 m/s 748 mmHg 75%
    Voir plus